Home   Weather   Rustenburg   Past weeks

Flag for South Africa Past Weather in Rustenburg, South Africa — Yesterday and Last 2 Weeks

Now
55 °F

Sunny.


Feels Like: 53 °F
Forecast: 36 / 80 °F
Wind: 10 mph from Northeast

Location: Lanseria Civ / Mil

Current Time: Aug 31, 2016 at 8:26:56 AM

Latest Report: Aug 31, 2016 at 8:00 AM


Visibility: 10 mi

Pressure: 30.39 "Hg (26.44 "Hg at 1166m altitude)

Humidity: 51%

Dew Point: 37 °F

Location of RustenburgLocation

Past Weather in Rustenburg — Graph

°F

Rustenburg Temperature Yesterday

Maximum temperature yesterday: 82 °F (at 3:00 PM)
Minimum temperature yesterday: 48 °F (at 6:00 AM)
Average temperature yesterday: 68 °F

High & Low Weather Summary for the Past Weeks

 TemperatureHumidityPressure
High82 °F (Aug 29, 4:00 PM)87% (Aug 17, 5:00 AM)30.60 "Hg (Aug 17, 5:00 AM)
Low39 °F (Aug 23, 4:00 AM)10% (Aug 21, 6:00 PM)30.07 "Hg (Aug 20, 5:00 PM)
Average62 °F39%30.38 "Hg
* Reported Aug 16 7:00 AM — Aug 31 7:00 AM, Rustenburg, Weather by CustomWeather, © 2016

Note: Actual official high and low records may vary slightly from our data, if they occured in-between our weather recording intervals... More about our weather records

Advertising

Rustenburg Weather History for the Previous 24 Hours

Scroll right to see more
 ConditionsComfort  
Time TempWeatherWind HumidityBarometerVisibility
7:00 AM
Wed, Aug 31
52 °FPassing clouds.3 mph50%30.42 "HgN/A
6:00 AM54 °FSunny.6 mph47%30.39 "Hg10 mi
5:00 AM52 °FClear.2 mph50%30.39 "Hg10 mi
2:00 AM59 °FRefreshingly cool.2 mph34%30.39 "HgN/A
1:00 AM64 °FMild.6 mph26%30.36 "HgN/A
10:00 PM
Tue, Aug 30
63 °FClear.2 mph27%30.36 "Hg10 mi
9:00 PM66 °FClear.5 mph22%30.36 "Hg10 mi
8:00 PM68 °FPassing clouds.5 mph23%30.33 "HgN/A
7:00 PM72 °FClear.5 mph20%30.33 "Hg10 mi
6:00 PM75 °FClear.9 mph15%30.30 "Hg10 mi
5:00 PM81 °FClear.10 mph13%30.30 "Hg10 mi
4:00 PM82 °FPassing clouds.10 mph11%30.30 "HgN/A
3:00 PM82 °FPassing clouds.6 mph12%30.30 "HgN/A
2:00 PM81 °FPassing clouds.7 mph14%30.33 "HgN/A
1:00 PM81 °FPassing clouds.8 mph14%30.36 "HgN/A
12:00 PM79 °FSunny.5 mph15%30.39 "Hg10 mi
11:00 AM75 °FPassing clouds.6 mph19%30.42 "HgN/A
10:00 AM70 °FSunny.3 mph23%30.45 "Hg10 mi
9:00 AM64 °FSunny.No wind32%30.45 "Hg10 mi
8:00 AM54 °FSunny.No wind47%30.45 "Hg10 mi
Weather by CustomWeather, © 2016

See weather overviewHow to use our weather pages